Location: Newark
(52.3500°N, 175.9667°E)
Time: 20:31:11
(UTC+00:00)

Transit 4A - Pass Details

Date: 28 April 2021
Orbit: 871 x 974 km, 66.8° (Epoch: 16 May)

Event Time Altitude Azimuth Distance (km) Brightness Sun altitude
Rises 10:39:15 0° 221° (SW) 3,612 - -20.3°
Exits shadow 10:39:31 - 221° (SW) 3,510 10.7 -20.3°
Reaches altitude 10° 10:41:49 10° 223° (SW) 2,656 10.1 -20.5°
Maximum altitude 10:48:00 79° 310° (NW) 945 7.9 -20.8°
Drops below altitude 10° 10:54:04 10° 38° (NE) 2,597 10.6 -21.2°
Sets 10:56:33 0° 40° (NE) 3,526 11.3 -21.3°
